Weather reports worldwide

Advertisment
Capo Caccia, Italy (16522): temperature & dewpoint: 29.03.2020 00:00:00 - 04.04.2020 00:00:00 (CEST)Capo Caccia, Italy (16522): wind speed: 29.03.2020 00:00:00 - 04.04.2020 00:00:00 (CEST)Capo Caccia, Italy (16522): wind direction: 29.03.2020 00:00:00 - 04.04.2020 00:00:00 (CEST)Capo Caccia, Italy (16522): reduced air pressure: 29.03.2020 00:00:00 - 04.04.2020 00:00:00 (CEST)Capo Caccia, Italy (16522): visibility: 29.03.2020 00:00:00 - 04.04.2020 00:00:00 (CEST)Capo Caccia, Italy (16522): sunshine duration: 29.03.2020 00:00:00 - 04.04.2020 00:00:00 (CEST)
Date & Time tt [°C] td [°C] ff [km/h] ff [kn] dd ppp [hPa] vv [km] sd [min]
04.04.2020 00:00:00 10,0 7,6 18 10 N 1015,4 20 -
03.04.2020 23:00:00 10,4 7,8 18 10 N 1014,6 20 -
03.04.2020 22:00:00 10,4 8,0 16 9 N 1014,5 20 -
03.04.2020 21:00:00 10,6 7,9 18 10 NNE 1013,7 20 -
03.04.2020 20:00:00 11,0 7,3 18 10 N 1013,2 20 18
03.04.2020 19:00:00 11,4 6,8 24 13 N 1012,5 20 60
03.04.2020 18:00:00 13,2 7,3 28 15 NNW 1012,2 20 60
03.04.2020 17:00:00 13,6 7,4 21 11 NNW 1012,2 20 60
03.04.2020 16:00:00 13,6 7,8 18 10 NNW 1012,2 20 60
03.04.2020 15:00:00 13,6 8,9 15 8 NNW 1012,2 20 30
03.04.2020 14:00:00 13,0 9,3 16 9 N 1012,4 20 0
03.04.2020 13:00:00 13,2 9,3 11 6 NE 1012,4 20 0
03.04.2020 12:00:00 12,4 9,5 15 8 NNE 1012,4 20 0
03.04.2020 11:00:00 11,0 8,9 24 13 NNE 1012,5 10 0
03.04.2020 10:00:00 11,0 8,9 18 10 NNE 1011,9 10 0
03.04.2020 09:00:00 10,0 7,9 15 8 NNE 1011,5 10 0
03.04.2020 08:00:00 11,0 8,9 9 5 NNE 1011,4 10 0
03.04.2020 07:00:00 11,2 9,2 8 4 NE 1011,4 10 -
03.04.2020 06:00:00 11,0 9,0 4 2 NE 1011,4 10 -
03.04.2020 05:00:00 10,8 9,2 2 1 NE 1011,4 10 -
03.04.2020 04:00:00 10,6 7,9 0 0 N 1011,5 10 -
03.04.2020 03:00:00 10,4 7,8 4 2 NE 1011,9 10 -
03.04.2020 02:00:00 10,6 8,1 0 0 N 1012,2 10 -
03.04.2020 01:00:00 10,4 8,1 5 3 NE 1012,2 10 -
03.04.2020 00:00:00 10,4 8,0 11 6 NE 1012,2 10 -
02.04.2020 23:00:00 10,2 7,8 5 3 NE 1012,2 10 -
02.04.2020 22:00:00 - - - - - - - -
02.04.2020 21:00:00 10,4 8,3 13 7 NE 1011,5 10 -
02.04.2020 20:00:00 10,4 8,1 11 6 NE 1011,5 10 0
02.04.2020 19:00:00 11,0 9,3 13 7 NE 1011,6 10 0
02.04.2020 18:00:00 11,0 9,4 5 3 NE 1011,9 10 0
02.04.2020 17:00:00 11,0 8,8 2 1 S 1012,2 10 0
02.04.2020 16:00:00 10,8 8,4 5 3 E 1012,5 10 0
02.04.2020 15:00:00 10,8 8,9 13 7 SSE 1012,7 10 0
02.04.2020 14:00:00 11,0 8,5 15 8 SSE 1013,0 20 0
02.04.2020 13:00:00 11,0 6,8 13 7 SSE 1013,3 20 0
02.04.2020 12:00:00 11,0 8,9 8 4 SW 1013,2 20 0
02.04.2020 11:00:00 11,0 8,8 5 3 SW 1012,7 20 0
02.04.2020 10:00:00 10,6 6,9 8 4 SSW 1012,5 20 0
02.04.2020 09:00:00 8,4 6,2 9 5 E 1012,7 20 0
02.04.2020 08:00:00 8,2 6,1 11 6 ENE 1012,7 20 0
02.04.2020 07:00:00 8,2 6,4 9 5 ENE 1012,9 10 -
02.04.2020 06:00:00 8,0 6,0 13 7 NE 1013,2 10 -
02.04.2020 05:00:00 8,2 6,0 9 5 NE 1014,5 10 -
02.04.2020 04:00:00 8,2 6,4 9 5 ENE 1014,6 10 -
02.04.2020 03:00:00 8,0 7,3 8 4 E 1014,8 10 -
02.04.2020 02:00:00 8,2 7,4 9 5 ENE 1015,4 10 -
02.04.2020 01:00:00 8,4 7,5 11 6 ENE 1015,5 10 -
02.04.2020 00:00:00 9,2 7,6 8 4 NE 1015,6 10 -
01.04.2020 23:00:00 10,2 6,9 0 0 N 1014,8 10 -
01.04.2020 22:00:00 11,8 2,3 11 6 NE 1014,4 10 -
01.04.2020 21:00:00 11,8 1,7 11 6 NE 1014,4 10 -
01.04.2020 20:00:00 11,8 0,5 15 8 NE 1014,4 20 -
01.04.2020 19:00:00 13,8 2,7 18 10 NE 1014,7 20 0
01.04.2020 18:00:00 14,8 2,9 16 9 NE 1015,0 20 0
01.04.2020 17:00:00 15,0 2,2 18 10 ENE 1015,2 20 0
01.04.2020 16:00:00 15,0 0,8 24 13 ENE 1015,2 20 12
01.04.2020 15:00:00 15,0 0,4 22 12 NE 1015,2 20 12
01.04.2020 14:00:00 15,0 -0,4 37 20 ENE 1015,7 20 60
01.04.2020 13:00:00 15,0 0,4 35 19 ENE 1015,8 20 60
01.04.2020 12:00:00 12,0 0,4 42 23 ENE 1016,4 20 60
01.04.2020 11:00:00 11,6 -0,2 48 26 ENE 1016,5 20 60
01.04.2020 10:00:00 9,0 -0,9 42 23 ENE 1016,7 20 60
01.04.2020 09:00:00 8,6 -0,5 50 27 NE 1016,3 20 0
01.04.2020 08:00:00 8,0 0,0 50 27 NE 1015,7 20 0
01.04.2020 07:00:00 8,4 1,5 48 26 NE 1015,8 20 -
01.04.2020 06:00:00 9,2 -0,1 50 27 NE 1015,5 20 -
01.04.2020 05:00:00 9,6 3,6 50 27 NE 1015,6 20 -
01.04.2020 04:00:00 10,0 6,8 44 24 NE 1015,6 20 -
01.04.2020 03:00:00 10,4 7,3 37 20 NNE 1015,6 20 -
01.04.2020 02:00:00 11,2 8,7 35 19 NNE 1015,5 20 -
01.04.2020 01:00:00 13,6 11,3 28 15 NE 1015,3 20 -
01.04.2020 00:00:00 13,6 11,1 26 14 NNE 1015,2 20 -
31.03.2020 23:00:00 13,8 11,3 24 13 NNE 1015,1 20 -
31.03.2020 22:00:00 13,0 10,9 22 12 NE 1014,8 20 -
31.03.2020 21:00:00 13,2 11,7 22 12 NNE 1014,3 20 -
31.03.2020 20:00:00 14,4 13,2 21 11 NNE 1014,2 20 0
31.03.2020 19:00:00 15,0 12,1 24 13 NNE 1014,2 20 0
31.03.2020 18:00:00 16,6 12,3 22 12 NNE 1014,0 20 24
31.03.2020 17:00:00 18,0 12,2 24 13 NE 1013,9 20 60
31.03.2020 16:00:00 19,0 12,1 21 11 NNE 1013,9 20 60
31.03.2020 15:00:00 18,8 11,8 21 11 NNE 1014,3 20 60
31.03.2020 14:00:00 18,8 13,0 18 10 NE 1014,5 20 60
31.03.2020 13:00:00 16,6 10,7 13 7 NNE 1015,1 20 60
31.03.2020 12:00:00 15,2 11,5 9 5 NNW 1015,1 20 60
31.03.2020 11:00:00 15,2 11,2 9 5 NNW 1015,1 20 60
31.03.2020 10:00:00 13,8 10,2 9 5 NNE 1014,5 20 42
31.03.2020 09:00:00 11,8 9,7 16 9 ENE 1014,4 10 30
31.03.2020 08:00:00 11,0 8,9 8 4 ENE 1014,5 10 0
31.03.2020 07:00:00 12,6 10,7 4 2 ENE 1014,4 10 0
31.03.2020 06:00:00 12,6 10,7 4 2 NE 1014,4 4,0 -
31.03.2020 05:00:00 12,6 10,8 2 1 NNE 1014,4 20 -
31.03.2020 04:00:00 13,0 11,5 2 1 WNW 1014,4 20 -
31.03.2020 03:00:00 13,0 11,5 4 2 SSE 1014,5 20 -
31.03.2020 02:00:00 13,0 11,5 0 0 N 1014,6 20 -
31.03.2020 01:00:00 13,2 11,6 5 3 W 1014,5 20 -
31.03.2020 00:00:00 13,2 11,6 5 3 S 1014,5 20 -
30.03.2020 23:00:00 13,2 12,0 8 4 WNW 1014,4 20 -
30.03.2020 22:00:00 13,2 12,0 11 6 WNW 1014,2 10 -
30.03.2020 21:00:00 13,6 12,3 13 7 W 1013,2 10 0
30.03.2020 20:00:00 13,6 12,3 13 7 W 1013,2 10 0
30.03.2020 19:00:00 14,0 12,2 15 8 WSW 1013,1 10 0
30.03.2020 18:00:00 15,0 12,3 9 5 SW 1012,8 20 60
30.03.2020 17:00:00 15,0 11,2 9 5 SW 1012,8 20 60
30.03.2020 16:00:00 15,2 10,6 8 4 SW 1013,0 10 60
30.03.2020 15:00:00 15,2 10,4 9 5 WSW 1013,0 10 60
30.03.2020 14:00:00 14,8 10,6 5 3 WSW 1013,1 10 24
30.03.2020 13:00:00 14,8 10,9 8 4 WSW 1013,1 10 12
30.03.2020 12:00:00 13,4 10,6 9 5 WSW 1013,2 10 30
30.03.2020 11:00:00 14,0 11,2 11 6 WSW 1012,9 10 42
30.03.2020 10:00:00 12,6 9,9 9 5 WSW 1012,3 10 0
30.03.2020 09:00:00 12,4 10,7 16 9 NW 1011,3 10 0
30.03.2020 08:00:00 12,4 10,8 11 6 W 1011,3 10 0
30.03.2020 07:00:00 13,2 11,5 13 7 SW 1011,1 10 -
30.03.2020 06:00:00 13,2 11,6 8 4 W 1011,1 20 -
30.03.2020 05:00:00 13,2 12,0 9 5 WSW 1011,2 20 -
30.03.2020 04:00:00 13,0 11,7 9 5 E 1011,5 20 -
30.03.2020 03:00:00 12,8 11,3 5 3 ESE 1012,3 20 -
30.03.2020 02:00:00 13,0 12,1 11 6 S 1012,4 20 -
30.03.2020 01:00:00 13,0 11,7 13 7 S 1012,8 20 -
30.03.2020 00:00:00 12,8 11,7 13 7 S 1013,2 20 -
29.03.2020 23:00:00 13,4 11,8 9 5 W 1013,1 20 -
29.03.2020 22:00:00 13,4 11,8 8 4 E 1013,1 20 -
29.03.2020 21:00:00 13,4 11,8 8 4 E 1013,0 20 -
29.03.2020 20:00:00 13,4 10,8 8 4 SW 1012,5 20 0
29.03.2020 19:00:00 14,6 10,6 8 4 SW 1012,3 20 60
29.03.2020 18:00:00 15,2 10,4 8 4 W 1012,3 20 60
29.03.2020 17:00:00 15,4 11,6 15 8 W 1012,3 20 60
29.03.2020 16:00:00 15,0 10,8 11 6 WSW 1012,8 20 60
29.03.2020 15:00:00 15,0 11,2 8 4 WSW 1013,3 20 60
29.03.2020 14:00:00 15,6 11,8 9 5 W 1014,1 20 60
29.03.2020 13:00:00 15,2 11,2 8 4 SSW 1014,3 20 60
29.03.2020 12:00:00 14,6 10,9 8 4 S 1014,4 20 60
29.03.2020 11:00:00 14,0 10,9 8 4 S 1014,4 20 60
29.03.2020 10:00:00 13,0 10,1 4 2 S 1014,4 20 60
29.03.2020 09:00:00 11,4 9,5 0 0 N 1015,0 20 30
29.03.2020 08:00:00 11,0 9,4 0 0 N 1015,1 20 0
29.03.2020 07:00:00 11,0 9,5 0 0 N 1014,7 10 -
29.03.2020 06:00:00 10,8 9,5 8 4 NW 1014,9 10 -
29.03.2020 05:00:00 11,0 8,9 8 4 SSE 1015,5 10 -
29.03.2020 04:00:00 10,6 8,4 0 0 N 1015,7 10 -
29.03.2020 03:00:00 10,6 8,1 0 0 N 1015,7 10 -
29.03.2020 02:00:00 11,0 9,8 8 4 NE 1015,6 10 -
29.03.2020 01:00:00 11,0 9,4 9 5 NE 1015,5 10 -
29.03.2020 00:00:00 - - - - - - - -

tt = temperature
td = dewpoint
ff = wind speed
dd = wind direction
ppp = reduced air pressure
vv = visibility
sd = sunshine duration

Next stations